Wind_Speed
18 18 18 18 17 17 17 18 18 18 18 19 19 19 19 19 19 20 20 21 21 21 21 21 21 21 22 22 23 23 23 23 23 23 23 24 24 24 24 25 24 23 24
19 19 19 19 19 19 19 19 19 19 19 19 20 20 21 20 20 21 21 22 21 21 22 21 21 21 22 22 23 24 24 24 24 24 25 25 24 24 25 25 25 25 25
20 20 20 20 20 20 20 20 20 20 20 21 21 22 22 22 22 23 23 23 22 22 22 22 22 22 22 23 24 25 25 25 26 25 26 26 26 26 26 26 26 26 26
21 21 21 21 21 22 22 21 21 21 21 22 22 23 23 23 24 24 24 24 24 23 23 23 23 23 23 24 24 25 26 26 27 26 27 28 28 27 27 27 27 27 27
21 22 22 22 22 22 22 23 23 22 23 23 23 24 24 24 25 25 25 25 24 24 24 25 25 25 26 26 26 26 27 27 27 28 28 29 28 28 28 28 28 28 28
21 21 22 22 22 23 23 23 23 24 24 24 24 24 25 25 26 26 26 26 26 26 26 26 26 27 27 27 27 28 28 28 28 29 29 29 29 29 29 29 28 28 29
22 22 23 23 24 23 23 24 24 24 24 25 25 25 26 26 26 26 26 26 26 26 26 27 28 28 28 28 29 29 29 29 29 29 29 29 30 29 29 29 29 30 30
23 24 24 24 24 24 24 24 25 26 26 27 27 27 27 27 27 27 27 27 27 27 27 28 28 28 28 29 29 29 30 30 30 31 31 30 30 30 30 30 30 30 30
25 25 25 24 24 25 25 26 26 27 27 28 28 28 28 29 28 27 28 28 28 28 29 29 29 29 29 30 30 30 30 31 32 32 32 33 32 32 32 31 31 31 31
26 26 25 24 25 25 26 27 27 27 28 28 28 29 29 29 29 30 29 29 29 29 29 30 30 30 30 31 31 31 31 32 33 33 33 32 33 32 32 32 32 31 31
27 26 26 26 26 27 27 28 28 29 29 29 29 29 29 29 30 31 31 31 30 30 31 31 31 32 32 32 32 32 32 33 33 32 32 32 33 32 33 33 32 31 32
26 26 27 28 27 28 29 29 30 30 30 31 31 30 30 31 31 32 32 32 32 32 32 32 33 33 33 34 34 34 33 33 33 33 33 33 33 33 33 34 33 32 32
27 27 28 29 29 29 30 31 31 32 32 32 32 31 32 32 33 33 33 33 33 33 33 33 33 34 34 34 34 34 33 33 33 33 32 32 32 32 33 33 33 33 32
27 27 28 30 30 31 31 32 32 32 33 32 32 32 32 32 33 33 33 33 33 33 33 34 34 35 35 34 34 33 33 33 33 32 32 32 33 33 32 32 33 33 33
29 29 30 31 31 32 32 33 33 33 33 32 32 32 33 33 32 32 33 33 33 34 34 34 35 35 35 34 33 33 33 33 32 32 32 32 33 32 32 32 32 32 32
31 32 32 32 32 32 33 32 32 33 33 34 33 33 33 33 33 33 34 34 34 34 34 34 34 34 34 34 34 34 33 33 33 33 33 33 33 33 32 32 32 32 32
32 33 33 33 33 33 33 33 33 33 34 35 35 34 34 34 34 34 34 34 34 34 34 34 34 33 33 33 34 34 34 34 34 33 33 33 33 33 33 32 33 33 32
33 33 34 34 33 33 33 33 34 34 34 35 35 35 35 35 35 35 35 35 34 34 34 33 33 33 33 33 33 34 34 34 33 34 34 34 33 33 33 33 33 32 33
34 34 34 34 33 33 33 33 33 34 35 35 35 35 35 35 35 36 36 35 34 34 33 33 33 33 33 33 33 33 33 33 34 34 34 34 33 33 34 34 33 33 33
35 34 34 33 33 33 33 33 34 34 35 35 35 35 36 35 35 35 34 34 33 32 32 33 33 32 32 33 33 33 33 33 33 33 33 33 33 33 34 34 33 32 32
35 34 34 33 33 33 33 33 33 33 34 35 35 35 35 34 33 33 33 32 32 32 32 32 32 32 32 33 33 33 33 33 33 33 33 33 33 33 33 33 33 33 32
35 34 34 33 33 33 32 32 32 33 33 34 34 33 33 32 32 31 31 32 31 31 31 32 32 32 33 33 32 33 33 33 33 33 33 33 33 33 33 32 32 32 32
35 34 34 33 32 32 32 32 32 33 33 33 33 32 32 31 31 31 31 31 32 32 32 33 32 32 33 32 32 32 33 34 34 33 33 33 32 32 32 31 31 31 31
35 34 34 34 33 33 33 33 33 34 34 34 34 33 33 33 32 32 32 32 32 32 33 33 32 32 32 32 32 32 32 32 32 31 31 31 31 31 31 30 30 30 30
34 34 34 33 33 33 34 34 34 34 35 35 34 34 34 34 33 33 33 33 33 33 33 33 32 32 32 31 31 31 31 31 31 31 31 31 31 30 30 30 30 30 30
34 34 34 33 33 34 34 34 35 35 35 35 35 35 34 34 34 34 34 33 33 33 33 33 33 32 32 31 31 31 31 31 31 31 31 30 30 30 31 31 30 30 30
Wind_Direction
281 282 280 279 279 282 283 284 284 283 283 282 281 279 280 282 284 284 284 284 282 281 282 282 279 276 273 269 267 266 265 266 265 266 268 268 268 269 270 271 271 270 268
278 280 282 280 279 281 282 281 282 282 282 279 280 281 280 281 282 283 284 282 282 282 283 282 279 276 275 271 270 269 269 269 268 268 270 271 270 270 269 270 270 270 270
277 278 280 281 281 282 282 281 282 282 282 281 281 281 280 280 281 282 283 282 281 281 282 282 280 278 276 274 272 271 271 271 270 269 271 271 272 271 270 269 269 270 271
278 279 280 281 282 283 282 281 281 282 282 282 281 281 282 282 282 283 280 280 279 279 280 280 281 281 278 276 274 273 272 272 271 270 271 272 272 271 270 269 269 269 269
280 280 280 281 282 281 281 281 281 281 282 283 283 283 282 283 282 281 280 279 280 280 279 280 281 280 277 277 277 277 276 274 272 271 271 271 272 272 270 269 269 269 268
282 282 282 281 281 281 280 281 282 283 283 284 284 283 283 284 284 282 279 278 279 280 279 279 280 280 279 279 279 278 278 277 274 272 270 272 272 272 271 270 270 269 267
282 283 282 282 282 282 282 281 282 284 284 285 285 284 285 285 285 283 280 280 280 279 279 279 280 282 280 280 278 277 277 277 275 274 271 271 271 270 271 269 268 268 268
283 283 283 284 283 283 283 282 283 284 284 284 285 285 285 285 283 282 280 281 281 280 279 279 280 281 282 281 280 279 278 277 276 275 273 271 270 270 270 270 268 268 268
282 283 284 283 282 282 282 282 283 284 284 284 284 285 285 284 283 282 281 281 282 280 280 279 280 281 282 282 281 280 278 277 276 275 273 271 270 271 271 271 270 269 267
281 281 282 283 282 283 283 283 284 284 285 285 284 284 284 282 280 281 282 282 283 282 282 281 280 281 282 283 282 280 277 276 276 275 273 271 270 271 271 271 271 270 269
281 281 279 281 282 282 282 283 284 284 284 284 284 284 282 281 280 280 280 281 282 282 283 282 282 282 282 282 283 281 279 278 278 276 273 271 270 271 271 271 271 270 269
282 282 281 281 281 281 282 283 283 283 284 284 283 282 281 281 281 281 281 281 282 282 282 283 283 282 282 283 283 282 280 278 277 275 274 273 271 271 271 270 269 269 270
283 284 284 282 283 282 282 282 282 283 283 284 284 282 281 281 282 282 282 282 281 281 282 283 282 282 283 283 284 283 280 279 278 276 274 273 272 272 271 271 269 270 271
284 284 285 284 283 284 284 283 283 283 282 282 283 283 282 283 283 282 282 282 282 282 282 283 282 281 281 282 282 281 279 278 277 276 275 273 273 271 271 271 272 271 269
283 285 286 285 285 285 285 284 283 283 282 282 282 283 283 284 284 284 282 282 282 282 282 282 282 282 281 281 281 280 279 278 277 276 274 273 273 273 272 271 272 272 270
283 284 286 287 287 286 285 284 284 283 284 284 283 284 284 284 284 284 284 283 283 283 282 282 282 281 280 280 280 280 280 278 277 275 274 273 273 272 271 270 270 270 270
283 283 285 286 286 286 285 284 284 283 284 286 285 284 284 284 284 285 285 285 284 283 282 282 282 282 281 281 280 280 279 278 276 274 273 274 275 272 269 269 269 268 269
282 282 284 285 286 285 286 286 286 285 285 286 286 285 283 283 283 284 285 286 285 284 283 282 282 281 280 280 280 279 278 278 276 274 274 274 275 272 270 270 271 270 269
282 283 284 284 284 284 284 285 286 286 286 287 287 286 285 284 283 283 284 285 284 284 283 283 282 281 279 279 278 278 278 278 278 275 274 274 274 272 271 272 272 272 271
283 283 283 283 283 283 283 286 287 287 287 288 287 287 287 286 284 283 283 283 283 283 282 282 282 281 279 278 278 278 278 278 278 276 275 275 274 273 273 273 273 271 270
283 283 282 282 283 284 285 286 288 288 288 287 288 288 288 286 284 283 282 283 283 283 282 281 281 280 279 278 278 277 278 278 278 277 275 275 273 273 274 274 273 271 269
282 283 283 282 282 283 284 285 287 289 290 289 289 289 291 289 286 285 284 283 283 283 282 282 282 281 280 280 279 278 278 277 276 276 276 275 274 274 274 273 271 269 268
283 283 283 282 283 283 283 284 286 288 289 290 289 289 290 290 288 287 287 286 284 284 285 284 283 282 281 281 280 279 278 277 275 275 276 275 275 275 274 271 270 268 267
283 283 284 284 284 284 284 285 286 287 287 288 289 289 290 291 290 289 289 287 286 287 287 286 284 282 281 281 280 278 278 276 275 275 276 276 275 275 273 271 270 270 268
283 284 283 283 283 283 284 285 286 287 287 287 288 289 290 290 289 288 288 288 287 287 287 285 284 282 280 280 279 279 278 276 275 274 274 273 273 273 271 270 270 269 270
282 283 283 282 282 283 283 284 285 285 286 286 287 288 288 289 289 288 288 288 287 286 285 284 282 281 280 279 279 279 279 277 275 275 274 273 273 273 272 272 271 270 271
Height
5800 5800 5799 5798 5798 5797 5796 5795 5794 5793 5792 5792 5791 5791 5790 5789 5789 5788 5787 5787 5786 5785 5784 5783 5781 5781 5781 5781 5782 5782 5782 5782 5783 5784 5783 5783 5783 5783 5783 5783 5784 5784 5785
5795 5795 5794 5794 5793 5792 5791 5790 5789 5788 5787 5786 5786 5785 5785 5784 5783 5782 5781 5781 5780 5779 5778 5776 5775 5775 5775 5775 5775 5775 5775 5775 5776 5776 5776 5776 5776 5776 5776 5776 5777 5777 5778
5790 5789 5789 5788 5787 5787 5786 5785 5784 5783 5782 5781 5780 5779 5779 5778 5777 5776 5775 5774 5773 5772 5771 5770 5769 5769 5768 5768 5768 5768 5768 5768 5768 5769 5769 5769 5769 5769 5769 5769 5769 5770 5770
5784 5784 5783 5782 5782 5781 5780 5779 5778 5777 5776 5775 5774 5773 5772 5771 5770 5769 5769 5768 5767 5766 5765 5764 5763 5762 5762 5761 5761 5761 5761 5761 5760 5761 5761 5761 5761 5761 5761 5761 5762 5762 5762
5779 5778 5777 5776 5776 5775 5774 5773 5772 5771 5769 5768 5767 5766 5765 5764 5763 5762 5761 5760 5760 5759 5758 5757 5756 5755 5754 5754 5753 5753 5753 5753 5752 5752 5753 5753 5752 5752 5752 5753 5753 5753 5754
5773 5772 5771 5770 5769 5768 5767 5766 5765 5764 5763 5761 5760 5759 5758 5756 5755 5754 5753 5752 5752 5751 5750 5749 5748 5747 5746 5745 5745 5745 5744 5744 5744 5744 5744 5744 5743 5743 5743 5743 5744 5744 5745
5766 5765 5764 5763 5762 5761 5760 5759 5758 5757 5756 5754 5753 5751 5750 5749 5747 5746 5745 5744 5743 5743 5742 5741 5740 5739 5738 5737 5736 5736 5735 5735 5735 5735 5735 5734 5734 5734 5734 5734 5734 5735 5736
5759 5758 5757 5756 5755 5754 5752 5752 5751 5749 5748 5747 5745 5744 5742 5741 5739 5738 5737 5736 5735 5734 5733 5732 5731 5730 5729 5728 5727 5727 5726 5725 5725 5725 5725 5725 5724 5724 5724 5725 5725 5726 5726
5752 5751 5750 5748 5747 5746 5745 5744 5743 5741 5740 5739 5737 5735 5734 5732 5731 5730 5728 5727 5726 5725 5724 5723 5722 5721 5720 5719 5718 5717 5716 5715 5714 5714 5714 5714 5714 5714 5714 5714 5715 5716 5717
5744 5743 5741 5740 5739 5739 5737 5736 5734 5733 5731 5730 5728 5727 5725 5724 5722 5721 5720 5719 5718 5717 5715 5714 5713 5712 5710 5709 5708 5707 5706 5705 5704 5703 5703 5703 5703 5703 5704 5704 5705 5705 5706
5735 5734 5733 5732 5731 5730 5729 5728 5726 5725 5723 5721 5719 5718 5716 5715 5713 5712 5710 5709 5708 5707 5706 5705 5703 5702 5701 5699 5698 5697 5695 5694 5693 5692 5692 5692 5692 5693 5693 5693 5694 5694 5695
5727 5726 5724 5724 5723 5722 5720 5719 5717 5715 5714 5712 5710 5708 5707 5705 5703 5702 5700 5699 5698 5697 5696 5695 5693 5691 5690 5689 5687 5686 5684 5683 5682 5682 5682 5682 5682 5682 5682 5682 5682 5683 5684
5719 5718 5716 5715 5714 5712 5711 5709 5708 5706 5704 5702 5700 5698 5697 5695 5693 5691 5690 5689 5687 5686 5685 5684 5682 5681 5679 5678 5676 5675 5673 5672 5672 5671 5671 5671 5671 5671 5671 5671 5672 5672 5673
5711 5709 5708 5706 5705 5703 5701 5699 5698 5696 5694 5692 5690 5688 5687 5685 5683 5681 5679 5678 5677 5675 5674 5673 5671 5670 5668 5667 5665 5664 5662 5662 5661 5660 5660 5661 5660 5660 5661 5661 5661 5661 5662
5702 5700 5699 5697 5695 5693 5691 5689 5687 5686 5683 5682 5680 5678 5676 5675 5673 5671 5669 5668 5666 5665 5663 5662 5660 5659 5657 5656 5654 5653 5652 5651 5650 5650 5650 5650 5650 5650 5650 5650 5651 5651 5651
5692 5691 5689 5687 5685 5683 5681 5679 5677 5675 5673 5671 5669 5667 5666 5664 5662 5660 5658 5656 5655 5653 5652 5651 5649 5648 5646 5645 5644 5643 5641 5640 5640 5639 5639 5639 5639 5639 5639 5640 5640 5640 5641
5682 5681 5679 5677 5675 5673 5671 5669 5667 5665 5663 5661 5658 5656 5655 5653 5651 5649 5647 5645 5643 5642 5640 5639 5638 5637 5635 5634 5633 5632 5631 5630 5629 5629 5628 5628 5628 5628 5628 5629 5629 5629 5630
5672 5670 5668 5666 5664 5662 5660 5658 5656 5654 5652 5650 5648 5645 5643 5642 5640 5638 5636 5634 5632 5631 5629 5628 5627 5625 5624 5623 5622 5621 5620 5619 5618 5618 5618 5617 5617 5617 5617 5618 5618 5618 5619
5661 5659 5658 5656 5654 5652 5650 5648 5646 5644 5641 5639 5637 5634 5632 5630 5628 5626 5624 5623 5621 5620 5618 5617 5616 5614 5613 5612 5611 5610 5609 5608 5608 5607 5607 5607 5606 5606 5606 5607 5607 5608 5608
5651 5649 5647 5645 5643 5641 5640 5638 5635 5633 5631 5628 5626 5624 5621 5619 5617 5615 5614 5612 5611 5609 5608 5606 5605 5603 5602 5601 5601 5600 5599 5598 5597 5597 5596 5596 5596 5595 5596 5596 5596 5597 5597
5640 5638 5636 5635 5633 5631 5629 5627 5625 5623 5620 5618 5616 5613 5611 5608 5606 5605 5603 5602 5600 5598 5597 5596 5594 5593 5592 5591 5590 5589 5589 5588 5587 5586 5586 5586 5585 5585 5585 5585 5586 5586 5587
5629 5628 5626 5624 5623 5621 5619 5617 5615 5613 5610 5608 5605 5603 5600 5598 5596 5595 5593 5592 5590 5588 5586 5585 5584 5583 5582 5581 5580 5579 5578 5577 5577 5576 5575 5575 5575 5574 5574 5574 5575 5575 5576
5618 5617 5616 5614 5612 5611 5609 5607 5605 5603 5600 5598 5596 5594 5591 5589 5587 5585 5583 5582 5580 5578 5576 5574 5573 5572 5571 5570 5569 5568 5568 5567 5566 5566 5565 5565 5564 5564 5564 5564 5564 5564 5565
5608 5606 5605 5603 5602 5600 5598 5597 5595 5592 5590 5588 5586 5584 5582 5580 5578 5576 5574 5572 5570 5568 5566 5564 5563 5562 5560 5559 5558 5557 5557 5556 5555 5555 5555 5555 5554 5554 5554 5554 5554 5554 5555
5597 5596 5594 5592 5591 5589 5588 5586 5584 5582 5580 5578 5576 5574 5572 5570 5568 5566 5564 5562 5560 5558 5556 5554 5552 5551 5550 5549 5548 5547 5546 5546 5545 5545 5545 5545 5544 5544 5544 5544 5544 5544 5545
5586 5585 5583 5582 5580 5579 5577 5575 5573 5572 5570 5568 5566 5564 5562 5560 5558 5556 5554 5552 5550 5548 5546 5544 5542 5541 5540 5539 5538 5537 5537 5536 5535 5535 5534 5534 5534 5534 5534 5534 5534 5534 5535